Location: Wells
(51.2093°N, 2.6446°W)
Time: 13:39:19
(UTC+01:00)

STARS - Pass Details

Date: 19 March 2026
Orbit: 575 x 588 km, 98.2° (Epoch: 14 April)

Event Time Altitude Azimuth Distance (km) Brightness Sun altitude
Rises 02:36:44 0° 12° (NNE) 2,802 ? -31.6°
Reaches altitude 10° 02:38:54 10° 11° (N) 1,898 ? -31.4°
Enters shadow 02:40:29 23° 7° (N) 1,262 ? -31.2°
